Weather History for Broken Bow, NE

Change the Weather History Date:

Monday, June 18, 2012

  Actual Average Record
Temperature  
Mean Temperature 86 °F 69 °F  
Max Temperature 103 °F 82 °F 103 °F (2012)
Min Temperature 69 °F 57 °F 36 °F (1912)
Degree Days  
Heating Degree Days 0 1  
Month to date heating degree days 15 36  
Since 1 June heating degree days 15 36  
Cooling Degree Days 21 5  
Month to date cooling degree days 128 68  
Year to date cooling degree days 197 102  
Since 1 June cooling degree days 128 68  
Growing Degree Days 36 (Base 50)    
Moisture  
Dew Point 56 °F    
Average Humidity 38    
Maximum Humidity 61    
Minimum Humidity 15    
Precipitation  
Precipitation 0.00 in 0.10 in 1.30 in (1975)
Sea Level Pressure  
Sea Level Pressure 29.44 in    
Wind  
Wind Speed 13 mph (SSW)    
Max Wind Speed 28 mph    
Max Gust Speed 40 mph    
Visibility 10 miles    
Events      
T = Trace of Precipitation, MM = Missing Value Source: NWS Daily Summary

Daily Weather History Graph

Daily Weather History Graph

Search for Another Location

Airport:

Trip Planner

Search our weather history database for the weather conditions in past years. The results will help you decide how hot, cold, wet, or windy it might be!

Date:

Astronomy

Jun. 18, 2012 Rise Set
Actual Time 6:04 AM CDT 9:15 PM CDT
Civil Twilight 5:30 AM CDT 9:49 PM CDT
Nautical Twilight 4:46 AM CDT 10:32 PM CDT
Astronomical Twilight 3:54 AM CDT 11:25 PM CDT
Moon 5:20 AM CDT (6/18) 8:34 PM CDT (6/18)
Length of Visible Light 16h 18m
Length of Day
15h 10m
Waning Crescent, 1% of the Moon is Illuminated
Jun 18
Waning Crescent
Jun 19
New
Jun 26
First Quarter
Jul 3
Full
Jul 10
Last Quarter

Hourly Weather History & Observations

Time (CDT) Temp. Heat Index Dew Point Humidity Pressure Visibility Wind Dir Wind Speed Gust Speed Precip Events Conditions
12:53 AM 79.0 °F - 55.9 °F 45% 29.40 in 10.0 mi South 16.1 mph 27.6 mph N/A   Clear
1:53 AM 77.0 °F - 55.9 °F 48% 29.39 in 10.0 mi SSW 13.8 mph 20.7 mph N/A   Clear
2:53 AM 75.0 °F - 55.9 °F 51% 29.39 in 10.0 mi SSW 9.2 mph - N/A   Clear
3:53 AM 72.0 °F - 55.9 °F 57% 29.40 in 10.0 mi South 5.8 mph - N/A   Clear
4:53 AM 70.0 °F - 55.0 °F 59% 29.40 in 10.0 mi WSW 4.6 mph - N/A   Clear
5:53 AM 71.1 °F - 53.1 °F 53% 29.41 in 10.0 mi West 9.2 mph - N/A   Clear
6:53 AM 73.0 °F - 45.0 °F 37% 29.44 in 10.0 mi WNW 12.7 mph - N/A   Clear
7:53 AM 71.1 °F - 53.1 °F 53% 29.47 in 10.0 mi WNW 6.9 mph - N/A   Clear
8:53 AM 73.0 °F - 57.0 °F 57% 29.47 in 10.0 mi WSW 8.1 mph - N/A   Clear
9:53 AM 80.1 °F 80.9 °F 60.1 °F 50% 29.50 in 10.0 mi West 6.9 mph - N/A   Clear
10:53 AM 88.0 °F 87.1 °F 59.0 °F 37% 29.49 in 10.0 mi NE 4.6 mph - N/A   Clear
11:53 AM 91.0 °F 89.7 °F 57.0 °F 32% 29.48 in 10.0 mi Variable 3.5 mph - N/A   Clear
12:53 PM 93.9 °F 92.0 °F 55.0 °F 27% 29.48 in 10.0 mi South 6.9 mph - N/A   Clear
1:53 PM 97.0 °F 95.0 °F 55.0 °F 24% 29.48 in 10.0 mi Calm Calm - N/A   Clear
2:53 PM 100.9 °F - 48.9 °F 17% 29.47 in 10.0 mi SW 11.5 mph 17.3 mph N/A   Clear
3:53 PM 102.0 °F - 46.0 °F 15% 29.45 in 10.0 mi South 10.4 mph - N/A   Clear
4:53 PM 102.0 °F 99.7 °F 53.1 °F 19% 29.44 in 10.0 mi South 17.3 mph 27.6 mph N/A   Clear
5:53 PM 98.1 °F 97.7 °F 59.0 °F 27% 29.44 in 10.0 mi South 20.7 mph 35.7 mph N/A   Clear
6:53 PM 97.0 °F 97.4 °F 61.0 °F 30% 29.43 in 10.0 mi South 21.9 mph 28.8 mph N/A   Clear
7:53 PM 93.9 °F 94.0 °F 61.0 °F 33% 29.43 in 10.0 mi South 17.3 mph 27.6 mph N/A   Clear
8:53 PM 90.0 °F 90.3 °F 62.1 °F 39% 29.43 in 10.0 mi South 18.4 mph 27.6 mph N/A   Clear
9:53 PM 87.1 °F 87.5 °F 62.1 °F 43% 29.44 in 10.0 mi South 20.7 mph 27.6 mph N/A   Clear
10:53 PM 84.9 °F 85.4 °F 62.1 °F 46% 29.45 in 10.0 mi South 24.2 mph 32.2 mph N/A   Clear
11:53 PM 84.0 °F 84.4 °F 61.0 °F 46% 29.45 in 10.0 mi South 23.0 mph 36.8 mph N/A   Clear